• în România
  • Lista ţărilor
  • Pe 7 zile
  • Temperatura apei
  • Hartă satelitară
  • Meteo pe hartă
  • Widget-uri
  • user-avatar
    Intrare

    Meteo pe oră la Scherbino

    Astăzi, 25 Aprilie, Miercuri

    Timp Temperatura Precipitaţii Vânt Presiune Umiditate
    00:00 +6°C° 0 mm 2 m/s 739 mmHg 94%
    01:00 +6°C° 0 mm 2 m/s 739 mmHg 95%
    02:00 +6°C° 0 mm 2 m/s 739 mmHg 95%
    03:00 +5°C° 0 mm 2 m/s 739 mmHg 94%
    04:00 +5°C° 0 mm 2 m/s 738 mmHg 93%
    05:00 +5°C° 0 mm 2 m/s 738 mmHg 91%
    06:00 +5°C° 0,2 mm 3 m/s 738 mmHg 89%
    07:00 +7°C° 0,2 mm 3 m/s 738 mmHg 87%
    08:00 +7°C° 0,2 mm 4 m/s 737 mmHg 84%
    09:00 +8°C° 0,2 mm 4 m/s 738 mmHg 79%
    10:00 +10°C° 0,2 mm 4 m/s 738 mmHg 74%
    11:00 +9°C° 0,2 mm 5 m/s 738 mmHg 69%
    12:00 +10°C° 0,1 mm 5 m/s 737 mmHg 64%
    13:00 +12°C° 0,1 mm 5 m/s 737 mmHg 60%
    14:00 +12°C° 0,1 mm 5 m/s 737 mmHg 56%
    15:00 +12°C° 0 mm 5 m/s 737 mmHg 56%
    16:00 +11°C° 0 mm 4 m/s 737 mmHg 56%
    17:00 +11°C° 0 mm 4 m/s 737 mmHg 56%
    18:00 +10°C° 0 mm 3 m/s 737 mmHg 63%
    19:00 +9°C° 0 mm 2 m/s 736 mmHg 69%
    20:00 +7°C° 0 mm 2 m/s 736 mmHg 75%
    21:00 +7°C° 0,2 mm 2 m/s 736 mmHg 79%
    22:00 +7°C° 0,2 mm 2 m/s 735 mmHg 83%
    23:00 +7°C° 0,2 mm 2 m/s 734 mmHg 86%

    Mâine, 26 Aprilie, Joi

    Timp Temperatura Precipitaţii Vânt Presiune Umiditate
    00:00 +7°C° 0,7 mm 2 m/s 734 mmHg 89%
    01:00 +8°C° 0,7 mm 3 m/s 733 mmHg 91%
    02:00 +8°C° 0,7 mm 3 m/s 733 mmHg 94%
    03:00 +8°C° 0,2 mm 3 m/s 732 mmHg 93%
    04:00 +7°C° 0,2 mm 4 m/s 732 mmHg 91%
    05:00 +8°C° 0,2 mm 4 m/s 732 mmHg 90%
    06:00 +7°C° 0,1 mm 5 m/s 732 mmHg 88%
    07:00 +7°C° 0,1 mm 5 m/s 733 mmHg 86%
    08:00 +7°C° 0,1 mm 6 m/s 733 mmHg 85%
    09:00 +7°C° 0,1 mm 6 m/s 734 mmHg 82%
    10:00 +7°C° 0,1 mm 6 m/s 735 mmHg 78%
    11:00 +7°C° 0,1 mm 6 m/s 736 mmHg 75%
    12:00 +8°C° 0,1 mm 6 m/s 737 mmHg 71%
    13:00 +9°C° 0,1 mm 6 m/s 737 mmHg 66%
    14:00 +10°C° 0,1 mm 6 m/s 738 mmHg 61%
    15:00 +10°C° 0,2 mm 5 m/s 738 mmHg 61%
    16:00 +10°C° 0,2 mm 5 m/s 738 mmHg 60%
    17:00 +11°C° 0,2 mm 4 m/s 739 mmHg 60%
    18:00 +10°C° 0 mm 4 m/s 739 mmHg 66%
    19:00 +8°C° 0 mm 3 m/s 739 mmHg 73%
    20:00 +7°C° 0 mm 2 m/s 740 mmHg 80%
    21:00 +7°C° 0,2 mm 3 m/s 740 mmHg 82%
    22:00 +7°C° 0,2 mm 3 m/s 740 mmHg 84%
    23:00 +7°C° 0,2 mm 3 m/s 741 mmHg 85%

    Poimâine, 27 Aprilie, Vineri

    Timp Temperatura Precipitaţii Vânt Presiune Umiditate
    00:00 +5°C° 0 mm 3 m/s 741 mmHg 88%
    01:00 +4°C° 0 mm 3 m/s 741 mmHg 91%
    02:00 +5°C° 0 mm 2 m/s 741 mmHg 94%
    03:00 +4°C° 0 mm 2 m/s 742 mmHg 95%
    04:00 +4°C° 0 mm 2 m/s 742 mmHg 95%
    05:00 +4°C° 0 mm 2 m/s 743 mmHg 96%
    06:00 +4°C° 0 mm 3 m/s 743 mmHg 90%
    07:00 +5°C° 0 mm 3 m/s 743 mmHg 84%
    08:00 +8°C° 0 mm 3 m/s 744 mmHg 78%
    09:00 +9°C° 0 mm 3 m/s 744 mmHg 70%
    10:00 +10°C° 0 mm 3 m/s 744 mmHg 62%
    11:00 +12°C° 0 mm 3 m/s 744 mmHg 54%
    12:00 +13°C° 0,1 mm 4 m/s 744 mmHg 50%
    13:00 +13°C° 0,1 mm 4 m/s 744 mmHg 47%
    14:00 +14°C° 0,1 mm 4 m/s 744 mmHg 43%
    15:00 +14°C° 0,1 mm 3 m/s 744 mmHg 45%
    16:00 +13°C° 0,1 mm 3 m/s 744 mmHg 47%
    17:00 +13°C° 0,1 mm 3 m/s 744 mmHg 49%
    18:00 +12°C° 0,1 mm 2 m/s 744 mmHg 58%
    19:00 +9°C° 0,1 mm 2 m/s 744 mmHg 67%
    20:00 +9°C° 0,1 mm 1 m/s 744 mmHg 76%
    21:00 +7°C° 0,3 mm 2 m/s 745 mmHg 79%
    22:00 +7°C° 0,3 mm 2 m/s 745 mmHg 83%
    23:00 +7°C° 0,3 mm 2 m/s 746 mmHg 86%

    28 Aprilie, Sâmbătă

    Timp Temperatura Precipitaţii Vânt Presiune Umiditate
    00:00 +6°C° 0 mm 2 m/s 746 mmHg 89%
    01:00 +5°C° 0 mm 2 m/s 746 mmHg 91%
    02:00 +5°C° 0 mm 2 m/s 746 mmHg 94%
    03:00 +4°C° 0 mm 2 m/s 747 mmHg 95%
    04:00 +4°C° 0 mm 2 m/s 747 mmHg 96%
    05:00 +3°C° 0 mm 2 m/s 747 mmHg 97%
    06:00 +5°C° 0 mm 2 m/s 748 mmHg 89%
    07:00 +7°C° 0 mm 2 m/s 748 mmHg 82%
    08:00 +8°C° 0 mm 2 m/s 749 mmHg 75%
    09:00 +9°C° 0 mm 2 m/s 749 mmHg 68%
    10:00 +11°C° 0 mm 3 m/s 749 mmHg 61%
    11:00 +12°C° 0 mm 3 m/s 749 mmHg 53%
    12:00 +13°C° 0 mm 3 m/s 749 mmHg 49%
    13:00 +13°C° 0 mm 3 m/s 749 mmHg 45%
    14:00 +14°C° 0 mm 3 m/s 749 mmHg 40%
    15:00 +14°C° 0 mm 3 m/s 749 mmHg 41%
    16:00 +14°C° 0 mm 3 m/s 749 mmHg 41%
    17:00 +15°C° 0 mm 2 m/s 749 mmHg 41%
    18:00 +13°C° 0 mm 2 m/s 749 mmHg 49%
    19:00 +10°C° 0 mm 2 m/s 749 mmHg 56%
    20:00 +10°C° 0 mm 1 m/s 749 mmHg 63%
    21:00 +8°C° 0 mm 2 m/s 749 mmHg 65%
    22:00 +8°C° 0 mm 2 m/s 749 mmHg 67%
    23:00 +8°C° 0 mm 2 m/s 749 mmHg 70%

    29 Aprilie, Duminică

    Timp Temperatura Precipitaţii Vânt Presiune Umiditate
    00:00 +8°C° 0 mm 3 m/s 749 mmHg 69%
    01:00 +8°C° 0 mm 3 m/s 748 mmHg 69%
    02:00 +9°C° 0 mm 3 m/s 748 mmHg 68%
    03:00 +8°C° 0,1 mm 4 m/s 748 mmHg 69%
    04:00 +8°C° 0,1 mm 4 m/s 747 mmHg 71%
    05:00 +10°C° 0,1 mm 4 m/s 747 mmHg 72%
    06:00 +10°C° 0,3 mm 4 m/s 746 mmHg 75%
    07:00 +11°C° 0,3 mm 4 m/s 746 mmHg 79%
    08:00 +11°C° 0,3 mm 4 m/s 746 mmHg 83%
    09:00 +13°C° 0,1 mm 4 m/s 746 mmHg 78%
    10:00 +14°C° 0,1 mm 4 m/s 746 mmHg 74%
    11:00 +17°C° 0,1 mm 4 m/s 745 mmHg 70%
    12:00 +17°C° 0,1 mm 5 m/s 745 mmHg 64%
    13:00 +19°C° 0,1 mm 5 m/s 745 mmHg 58%
    14:00 +20°C° 0,1 mm 5 m/s 745 mmHg 51%
    15:00 +19°C° 0 mm 5 m/s 745 mmHg 49%
    16:00 +19°C° 0 mm 5 m/s 745 mmHg 47%
    17:00 +18°C° 0 mm 4 m/s 746 mmHg 44%
    18:00 +16°C° 0 mm 3 m/s 746 mmHg 53%
    19:00 +13°C° 0 mm 3 m/s 746 mmHg 61%
    20:00 +12°C° 0 mm 2 m/s 747 mmHg 69%
    21:00 +11°C° 0 mm 1 m/s 747 mmHg 74%
    22:00 +10°C° 0 mm 1 m/s 748 mmHg 78%
    23:00 +9°C° 0 mm 1 m/s 748 mmHg 82%

    30 Aprilie, Luni

    Timp Temperatura Precipitaţii Vânt Presiune Umiditate
    00:00 +8°C° 0 mm 1 m/s 748 mmHg 85%
    01:00 +7°C° 0 mm 0 m/s 748 mmHg 87%
    02:00 +6°C° 0 mm 0 m/s 749 mmHg 89%
    03:00 +6°C° 0 mm 0 m/s 749 mmHg 90%
    04:00 +6°C° 0 mm 0 m/s 749 mmHg 90%
    05:00 +6°C° 0 mm 0 m/s 749 mmHg 90%
    06:00 +9°C° 0 mm 1 m/s 749 mmHg 81%
    07:00 +11°C° 0 mm 1 m/s 749 mmHg 71%
    08:00 +14°C° 0 mm 1 m/s 749 mmHg 62%
    09:00 +16°C° 0 mm 1 m/s 749 mmHg 55%
    10:00 +19°C° 0 mm 1 m/s 749 mmHg 48%
    11:00 +21°C° 0 mm 1 m/s 749 mmHg 41%
    12:00 +21°C° 0 mm 1 m/s 749 mmHg 40%
    13:00 +22°C° 0 mm 1 m/s 748 mmHg 38%
    14:00 +23°C° 0 mm 2 m/s 748 mmHg 37%
    15:00 +23°C° 0 mm 2 m/s 748 mmHg 41%
    16:00 +21°C° 0 mm 2 m/s 747 mmHg 45%
    17:00 +21°C° 0 mm 2 m/s 747 mmHg 49%
    18:00 +20°C° 0 mm 2 m/s 747 mmHg 57%
    19:00 +18°C° 0 mm 2 m/s 747 mmHg 66%
    20:00 +16°C° 0 mm 2 m/s 746 mmHg 74%
    21:00 +16°C° 0 mm 2 m/s 746 mmHg 77%
    22:00 +15°C° 0 mm 2 m/s 746 mmHg 80%
    23:00 +14°C° 0 mm 3 m/s 746 mmHg 83%
    Arată mai mult